Wetterdaten Winter 2012/2013

Datum T max T min Regen
01.12.2012 -0.6 °C -4.6 °C 0 mm
02.12.2012 2 °C -3.3 °C 0.7 mm
03.12.2012 3.6 °C -0.3 °C 3.6 mm
04.12.2012 4.2 °C 0.4 °C 16.2 mm
05.12.2012 3.5 °C 1.1 °C 3.6 mm
06.12.2012 1.8 °C -2.2 °C 0.4 mm
07.12.2012 -0.8 °C -3.4 °C 0 mm
08.12.2012 -2 °C -10.4 °C 0.7 mm
09.12.2012 1.3 °C -10.6 °C 0 mm
10.12.2012 2.7 °C 0.4 °C 2.2 mm
11.12.2012 0.3 °C -2.8 °C 0 mm
12.12.2012 -2 °C -8.1 °C 0.7 mm
13.12.2012 0.5 °C -9.3 °C 0 mm
14.12.2012 5.1 °C 0.5 °C 10.4 mm
15.12.2012 8.5 °C 4.7 °C 4.3 mm
16.12.2012 9.2 °C 4.6 °C 1.8 mm
17.12.2012 8.8 °C 4.2 °C 6.8 mm
18.12.2012 6.5 °C 3.1 °C 1.4 mm
19.12.2012 5.7 °C -0.5 °C 0 mm
20.12.2012 2.2 °C -2.2 °C 6.5 mm
21.12.2012 6.9 °C 1 °C 9 mm
22.12.2012 8.1 °C 3.1 °C 9.7 mm
23.12.2012 14.3 °C 4.7 °C 10.4 mm
24.12.2012 13.5 °C 5.8 °C 0 mm
25.12.2012 16.8 °C 7.6 °C 4 mm
26.12.2012 10 °C 7.3 °C 0.4 mm
27.12.2012 9.8 °C 6.5 °C 9.7 mm
28.12.2012 7 °C 5.6 °C 10.4 mm
29.12.2012 10.9 °C 3.5 °C 0 mm
30.12.2012 9 °C 3.6 °C 0.4 mm
31.12.2012 9.5 °C 4.7 °C 0 mm
01.01.2013 9.2 °C 3.6 °C 0.4 mm
02.01.2013 6.6 °C -1.3 °C 0 mm
03.01.2013 6.5 °C -2 °C 1.1 mm
04.01.2013 8.8 °C 6.6 °C 1.4 mm
05.01.2013 8.1 °C 6.2 °C 0.7 mm
06.01.2013 7.2 °C 5.4 °C 0.4 mm
07.01.2013 8.4 °C 3.2 °C 0.4 mm
08.01.2013 4.7 °C 2.3 °C 0 mm
09.01.2013 3.7 °C 0.7 °C 0.4 mm
10.01.2013 4.5 °C 1.2 °C 1.1 mm
11.01.2013 2.5 °C -0.7 °C 0 mm
12.01.2013 -1 °C -2.3 °C 0 mm
13.01.2013 -0.9 °C -4 °C 0 mm
14.01.2013 -1.3 °C -5.4 °C 0 mm
15.01.2013 1.9 °C -5.5 °C 1.8 mm
16.01.2013 -1.2 °C -4 °C 0 mm
17.01.2013 -3.1 °C -4.4 °C 0 mm
18.01.2013 -1.1 °C -3.6 °C 0 mm
19.01.2013 -0.5 °C -4.1 °C 0 mm
20.01.2013 -0.3 °C -3.9 °C 0 mm
21.01.2013 1.2 °C -2.2 °C 0 mm
22.01.2013 1.2 °C -0.6 °C 0.4 mm
23.01.2013 1.8 °C -2.1 °C 2.5 mm
24.01.2013 -0.6 °C -3.4 °C 0 mm
25.01.2013 -1.8 °C -4.1 °C 0 mm
26.01.2013 -1.5 °C -4.8 °C 0 mm
27.01.2013 4.1 °C -2.9 °C 2.5 mm
28.01.2013 6.8 °C 0.3 °C 0.7 mm
29.01.2013 9.1 °C 3.3 °C 11.2 mm
30.01.2013 14.9 °C 8.6 °C 2.9 mm
31.01.2013 11.7 °C 4.8 °C 1.4 mm
01.02.2013 8 °C 5.8 °C 18.7 mm
02.02.2013 7.1 °C -0.4 °C 4.3 mm
03.02.2013 3.7 °C -0.7 °C 0 mm
04.02.2013 7.6 °C 0.9 °C 10.8 mm
05.02.2013 7.8 °C -0.2 °C 0.7 mm
06.02.2013 2.5 °C -2 °C 3.6 mm
07.02.2013 1.8 °C -1.3 °C 1.8 mm
08.02.2013 1.9 °C -2.3 °C 0 mm
09.02.2013 0.5 °C -4.1 °C 2.9 mm
10.02.2013 0.1 °C -7.2 °C 0.7 mm
11.02.2013 0.1 °C -5.6 °C 0 mm
12.02.2013 -1.3 °C -5 °C 0 mm
13.02.2013 0.7 °C -4.1 °C 0 mm
14.02.2013 2 °C -7.2 °C 0 mm
15.02.2013 1 °C -1.8 °C 3.2 mm
16.02.2013 3.5 °C 0.7 °C 1.8 mm
17.02.2013 4.6 °C 1.1 °C 0 mm
18.02.2013 4.1 °C -2 °C 0 mm
19.02.2013 2.6 °C -3.1 °C 1.8 mm
20.02.2013 1.9 °C -1.4 °C 0.7 mm
21.02.2013 1 °C -3.7 °C 0 mm
22.02.2013 -1.9 °C -6.4 °C 0 mm
23.02.2013 -2 °C -6 °C 0 mm
24.02.2013 -1.2 °C -4.3 °C 0.4 mm
25.02.2013 0.3 °C -2.6 °C 0 mm
26.02.2013 0.7 °C -5.3 °C 2.5 mm
27.02.2013 2.5 °C 0.5 °C 2.5 mm
28.02.2013 3.7 °C 0.4 °C 0 mm
*) Messwert für diesen Zeitpunkt noch nicht verfügbar
 Hinweis zur Datenqualität
∅ Temperatur

2 °C

Abweichung vom Mittel

0 °C

Niederschlag

199.1 mm

Abweichung vom Mittel

161 %

16.8 °C

Lufttemperatur
25.12.2012

1029 hPa

Luftdruck
03.01.2013

49.4 km/h

Windböen
21.02.2013

199.08002 mm

Niederschlag
 

-10.6 °C

Lufttemperatur
09.12.2012

-12.2 °C

Bodentemperatur 5cm
08.12.2012

982 hPa

Luftdruck
25.12.2012
 Hinweis zur Datenqualität